Regional Weather Roundup
Issued by NWS Wakefield, VA

Home | Current Version | Previous Version | Text Only | Print | Product List | Glossary On
Versions: 1 2 3 4 5 6 7 8 9 10 11 12 13 14 15 16 17 18 19 20 21 22 23 24 25 26 27 28 29 30 31 32 33 34 35 36 37 38 39 40 41 42 43 44 45 46 47 48 49 50
000
ASUS41 KAKQ 241310
RWRAKQ

REGIONAL WEATHER ROUNDUP
NATIONAL WEATHER SERVICE WAKEFIELD VA
900 AM EDT THU JUL 24 2014

Note: "fair" indicates few or no clouds below 12,000 feet with no
significant weather and/or obstructions to visibility. * = Denotes
station may not report precipitation (e.g., rain,snow,etc.),
thunder or fog.

VAZ042-051-052>054-056-241400-
NORTHERN VIRGINIA

CITY           SKY/WX    TMP DP  RH WIND       PRES   REMARKS
WASH NATIONAL  CLOUDY    76  63  64 N9        29.90S
DULLES         CLOUDY    72  63  73 N12       29.92R
FORT BELVOIR   CLOUDY    74  69  84 N5        29.90R
QUANTICO       CLOUDY    74  70  87 N5        29.91R
FREDERICKSBRG* CLOUDY    74  72  95 N6        29.90R
STAFFORD*      CLOUDY    72  72 100 N3        29.95R
WARRENTON      CLOUDY    74  72  95 N6        29.92R
CULPEPER*      CLOUDY   N/A N/A N/A N6        29.93R
MANASSAS*      NOT AVBL
LEESBURG*      CLOUDY    72  68  88 N10       29.94R
WINCHESTER     CLOUDY    70  63  78 N3        29.95S
$$

VAZ048-049-060>072-079>083-241400-
CENTRAL AND SOUTH CENTRAL VIRGINIA...AND NORTH CENTRAL NORTH CAROLINA

CITY           SKY/WX    TMP DP  RH WIND       PRES   REMARKS
RICHMOND       RAIN      75  71  87 CALM      29.91R FOG
CHESTERFIELD*  CLOUDY    73  63  68 SW5       29.94R
HANOVER        RAIN      73  70  90 NW3       29.92S FOG
TAPPAHANNOCK*  RAIN      74  71  88 CALM      29.90R
CHARLOTTSVILLE CLOUDY    73  70  90 SE3       29.93R FOG
ORANGE*        CLOUDY    73  68  83 N5        29.93S
LOUISA*        CLOUDY    72  70  94 CALM      29.92R
FARMVILLE*     CLOUDY    72  72 100 CALM      29.91S
SOUTH HILL*    LGT RAIN  75  75 100 N6        29.97S
ROANOKE RAPIDS CLOUDY    79  73  83 NW5       29.91R
RALEIGH        PTSUNNY   77  73  87 CALM      29.93R
$$

VAZ088>098-241400-
SOUTHEAST VIRGINIA

CITY           SKY/WX    TMP DP  RH WIND       PRES   REMARKS
NORFOLK        MOSUNNY   81  72  74 W6        29.87R
VIRGINIA BEACH PTSUNNY   81  74  79 W9        29.86R
NORFOLK NAVAL  PTSUNNY   81  73  76 N12       29.88R
WEST POINT*    CLOUDY    76  73  90 CALM      29.91R
NEWPORT NEWS   LGT RAIN  77  72  84 NW9       29.89R VSB 1
LANGLEY AFB    DRIZZLE   77  73  88 N9        29.87R
FORT EUSTIS    TSTM      75  75 100 N7        29.88R FOG
WILLIAMSBURG*  CLOUDY    75  73  94 NW6       29.91R
FRANKLIN*      PTSUNNY   79  73  83 W28G51    29.93R
WAKEFIELD      RAIN      74  71  91 VRB7      29.93R FOG
$$

VAZ020-022-025-037-045-241400-
WESTERN AND SOUTHWEST VIRGINIA

CITY           SKY/WX    TMP DP  RH WIND       PRES   REMARKS
STAUNTON*      CLOUDY    71  68  90 CALM      29.98R
HOT SPRINGS VA PTSUNNY   62  60  95 W8        30.08S
LYNCHBURG      CLOUDY    71  69  93 CALM      29.97R
DANVILLE       CLOUDY    73  70  90 CALM      29.94R
MARTINSVILLE   CLOUDY    74  69  86 CALM      29.98S
ROANOKE        CLOUDY    73  66  78 SW3       29.98R
BLACKSBURG     LGT RAIN  72  70  94 CALM        N/A
DUBLIN*        CLOUDY    73  69  87 SW3       30.02S
MARION*        CLOUDY    69  69  98 W6        30.06S FOG
HILLSVILLE*    CLOUDY    68  66  92 NW3       30.04S
RICHLANDS*     FOG       69  68  94 CALM      30.05R VSB 1/2
WISE*          CLOUDY    68  68 100 W5        30.07R
ABINGDON*      CLOUDY    72  70  93 CALM      30.02S FOG
$$

MDZ021>025-VAZ099-100-241400-
SOUTHERN MARYLAND AND THE DELMARVA PENINSULA

CITY           SKY/WX    TMP DP  RH WIND       PRES   REMARKS
PATUXENT RIVER LGT RAIN  75  69  81 N10       29.89R
BAY BRIDGE APT   N/A     73  68  83 N7        29.89R
LEONARDTOWN    CLOUDY    72  68  88 CALM      29.91R
DOVER          CLOUDY    72  71  96 N10       29.85S
GEORGETOWN     CLOUDY    74  70  87 NE8       29.87R
EASTON         CLOUDY    73  73 100 N7        29.92R
CAMBRIDGE      CLOUDY    72  66  83 N7        29.88R
SALISBURY      NOT AVBL
OCEAN CITY     LGT RAIN  74  71  91 NE7       29.85S
WALLOPS ISLAND LGT RAIN  75  71  87 N7        29.86R
ACCOMACK*      TSTM      73  72  94 CALM      29.87R VSB 1/2
$$

NCZ012>017-030>032-241400-
EASTERN NORTH CAROLINA

CITY           SKY/WX    TMP DP  RH WIND       PRES   REMARKS
ELIZABETH CITY PTSUNNY   80  75  84 SW12      29.88R
AHOSKIE*       MOSUNNY   79  73  82 NW3       29.90R
EDENTON*       CLOUDY    80  76  87 W7        29.89R
CURRITUCK*     PTSUNNY   82  73  75 W10       29.88R
KILL DEVIL HLS CLOUDY    81  75  82 W8        29.87R
MANTEO         NOT AVBL
CAPE HATTERAS  SUNNY     83  75  77 W10       29.91R
GOLDSBORO      SUNNY     81  80  96 SW12      29.89S
WASHINGTON     MOSUNNY   78  75  88 W10       29.90S
GREENVILLE     SUNNY     81  75  83 W8G16     29.92S
NEW BERN       SUNNY     84  75  74 SW8       29.92S
WILMINGTON     MOSUNNY   83  76  79 W10       29.93F
$$

VAZ048-241400-
ELSEWHERE

CITY           SKY/WX    TMP DP  RH WIND       PRES   REMARKS
HARRISBURG PA  CLOUDY    71  59  65 N12       29.92S
BALTIMORE      CLOUDY    72  67  84 NW5       29.90S
ANNAPOLIS      CLOUDY    74  66  76 N9        29.89R
ANDREWS AFB    NOT AVBL
WILMINGTON DE  CLOUDY    72  65  78 N7        29.89S
PHILADELPHIA   CLOUDY    73  59  61 N13       29.88R
WILDWOOD NJ*   CLOUDY    72  66  83 N6        29.86F
ATLANTIC CITY  PTSUNNY   72  66  81 NW9       29.86R
HENDERSON NC   CLOUDY    76  69  80 N3        29.93S
GREENSBORO     LGT RAIN  74  71  91 CALM      29.94S
ROCKY MOUNT    PTSUNNY   80  74  81 W9        29.91R
FAYETTEVILLE   MOSUNNY   82  74  76 SW12      29.91F
CHARLOTTE      PTSUNNY   75  70  84 CALM      29.95R
$$

VAZ100-241400-
MARINE

STATION/POSITION TIME  TEMP    WIND        PRES    WAVE   SWELL
                       AIR SEA DIR/SP/G            HT/PER HT/PER
                 (UTC) (F)     (DEG/KT/KT) (MB)    (FT/S) (FT/S)
44066 TX TWR #4  1300   73 74  350/ 14/ 16 1009.6R   3/ 5   2/ 8
CAPE MAY NJ      1300   73 78  360/  6/  9 1010.5R
LEWES DE         1300   72 71  360/  7/  9 1010.7R
15NM E FENWICK I 1300   74 76              1010.6S   2/ 5
OCEAN-CITY-INLET 1300   73 69   30/  8/ 11 1010.2S
WACHAPREAGUE VA  1300   74 82  320/  4/  7 1011.4R
THOMAS POINT MD  1300   74 79  360/ 13/ 15 1012.4R
GOOSES REEF MD   1300   75      50/ 12/ 16 1012.3R
COVE POINT MD    1300   74      40/ 14/ 16 1011.8R
SOLOMONS ISLAND  1300      81                N/A
BISHOPS HEAD MD  1300   74 80   10/  8/ 13 1011.1R
PINEY POINT MD   1300          360/  8/  9   N/A
POTOMAC MD       1300   77      10/  8/ 10 1010.8S
CAMBRIDGE MD     1300   73 80   10/  7/ 11 1011.5R
LEWISETTA VA     1300   76 81  360/  6/  8 1011.6R
RAPPAHANNOCK LGT 1300          350/ 10/ 12 1011.8R
STINGRAY PT      1300   78     330/  8/ 10 1012.2R
YORK RVR RNG VA  1300   77     350/ 15/ 18 1011.2R
YORKTOWN VA      1300   75 81   20/ 10/ 12 1011.5R
JAMESTOWN VA     1300   73     350/  6/ 10   N/A
DOMINION TERM VA 1300   79     350/ 10/ 12 1011.5R
KIPTOPEKE VA     1300      82   10/ 11/ 17   N/A
CHES BAY BRIDGE  1300   78 79  270/ 12/ 12 1010.6R
CAPE HENRY VA    1300   79     280/ 13/ 14 1009.9R
WILLOUBY STN VA  1300          350/ 12/ 14 1010.5S
S CRANEY ISL VA  1300          320/  7/ 10 1011.4R
CAPE HENRY BUOY  1300      77                N/A     3/ 6
1ST LANDING BUOY 1300   79     290/ 12/ 14 1011.0R
CAPE CHARLES BUO 1300      74                N/A     2/ 6
OFFSHORE WE BUOY 1300      78                N/A     3/ 6
64NM E OF VA BCH 1300   78 78  240/ 12/ 16 1010.7R   4/ 6   3/ 6
DUCK PIER NC     1300   80 64  250/ 15/ 19 1010.7S
44056 DUCK FRF   1300                        N/A     1/ 9
OREGON INLET NC  1300   80 83  230/ 13/ 16 1011.6S
HATTERAS NC      1300   82 81  230/ 11/ 15 1013.0S
DIAMOND SHLS NC  1300          VRB 17/ 21  1012.4F   4/ 5
CAPE LOOKOUT NC  1200   81     250/ 15/ 19 1013.3R
$$


USA.gov is the U.S. government's official web portal to all federal, state and local government web resources and services.